Location: Grust
(42.8833°N, 0.0333°W)
Time: 14:36:11
(UTC+00:00)

CSL-04 Rocket - Pass Details

Date: 25 October 2020
Orbit: 805 x 861 km, 98.9° (Epoch: 24 November)

Event Time Altitude Azimuth Distance (km) Brightness Sun altitude
Rises 18:00:42 0° 134° (SE) 3,427 6.5 -11.4°
Reaches altitude 10° 18:03:18 10° 125° (SE) 2,493 5.7 -11.9°
Maximum altitude 18:08:05 31° 65° (ENE) 1,476 4.5 -12.8°
Drops below altitude 10° 18:12:51 10° 6° (N) 2,491 6.0 -13.7°
Sets 18:15:27 0° 356° (N) 3,424 6.9 -14.1°
